This is the latest recevied weather packets stored in our database for station/object ALTO-WX. If no packets are shown the sender has not sent any weather packets the latest 10 day(s).
| Time | Temp. | Humidity | Pressure | Rain* | Wind** | Luminosity | Snow |
|---|---|---|---|---|---|---|---|
| 1778094064 | 11.67° C | 34% | 982.9 hPa | 0 mm | - | - | - |
| 1778093139 | 11.11° C | 36% | 982.6 hPa | 0 mm | - | - | - |
| 1778092250 | 11.67° C | 35% | 982.7 hPa | 0 mm | - | - | - |
| 1778091338 | 11.11° C | 35% | 982.7 hPa | 0 mm | - | - | - |
| 1778090468 | 11.11° C | 35% | 982.7 hPa | 0 mm | - | - | - |
| 1778089536 | 11.67° C | 37% | 982.9 hPa | 0 mm | - | - | - |
| 1778088656 | 11.67° C | 35% | 983.4 hPa | 0 mm | - | - | - |
| 1778087739 | 11.67° C | 35% | 983.4 hPa | 0 mm | - | - | - |
| 1778086867 | 11.67° C | 37% | 983.6 hPa | 0 mm | - | - | - |
| 1778085940 | 11.11° C | 41% | 982.8 hPa | 0 mm | - | - | - |
| 1778085052 | 10.56° C | 41% | 982.8 hPa | 0 mm | - | - | - |
| 1778084139 | 10° C | 41% | 982.8 hPa | 0 mm | - | - | - |
| 1778083266 | 10° C | 41% | 982.8 hPa | 0 mm | - | - | - |
| 1778082338 | 10° C | 50% | 983.5 hPa | 0 mm | - | - | - |
| 1778081452 | 9.44° C | 51% | 982.8 hPa | 0 mm | - | - | - |
| 1778080539 | 8.89° C | 51% | 982.8 hPa | 0 mm | - | - | - |
| 1778079671 | 8.89° C | 51% | 982.8 hPa | 0 mm | - | - | - |
| 1778078739 | 8.33° C | 58% | 982.9 hPa | 0 mm | - | - | - |
| 1778077856 | 7.78° C | 58% | 982.9 hPa | 0 mm | - | - | - |
| 1778076939 | 7.78° C | 58% | 982.9 hPa | 0 mm | - | - | - |
| 1778076068 | 7.22° C | 52% | 982.4 hPa | 0 mm | - | - | - |
| 1778075135 | 7.22° C | 66% | 981.8 hPa | 0 mm | - | - | - |
| 1778074255 | 6.67° C | 66% | 981.8 hPa | 0 mm | - | - | - |
| 1778073337 | 6.11° C | 66% | 981.9 hPa | 0 mm | - | - | - |
| 1778072464 | 5.56° C | 66% | 981.9 hPa | 0 mm | - | - | - |
* Rain latest hour (hover to see other rain measurements)
** Current wind speed in m/s (hover to see current wind gust speed)